User: anonymous   Login
Location: Mentone
(34.5413°N, 85.5351°W)
Time: 11:43:11
(UTC-05:00)
Language:

ADEOS Rocket - Orbit

View from above orbital plane
View from above orbital plane
View from above satellite
View from above satellite

Ground track
Ground track

The orbit data is extracted from the following two-line orbital elements,

1 24279U 96046C   17087.86964575 +.00000041 +00000-0 +94298-4 0  9993
2 24279 098.7449 041.7851 0300720 133.2948 288.1683 13.47078428013155
Epoch (UTC): 28 March 2017 20:52:17
Eccentricity: 0.0300720
inclination: 98.7449°
perigee height: 858 km
apogee height: 1307 km
right ascension of ascending node: 41.7851°
argument of perigee: 133.2948°
revolutions per day: 13.47078428
mean anomaly at epoch: 288.1683°
orbit number at epoch: 1315

The dashed part of the orbit path shows where the satellite is in the earth's shadow,  

DLR